Nellis AFB, NV

3:49 AM PDT on October 21, 2017 (GMT -0700)
Nellis Air Force Base

Weather History for KLSV - December, 2012

Change the Weather History Date:

Thursday, December 6, 2012

  Actual Average Record
Temperature  
Mean Temperature 54 °F -  
Max Temperature 68 °F 57 °F 68 °F (2012)
Min Temperature 41 °F 36 °F 25 °F (2011)
Degree Days  
Heating Degree Days 10    
Growing Degree Days 4 (Base 50)    
Moisture  
Dew Point 39 °F    
Average Humidity 60    
Maximum Humidity 82    
Minimum Humidity 36    
Precipitation  
Precipitation 0.00 in - - ()
Sea Level Pressure  
Sea Level Pressure 29.93 in    
Wind  
Wind Speed 3 mph (ENE)    
Max Wind Speed 8 mph    
Max Gust Speed -    
Visibility 10 miles    
Events      
Averages and records for this station are not official NWS values.
T = Trace of Precipitation, MM = Missing Value Source: NWS Daily Summary

Daily Weather History Graph

Daily Weather History Graph

Search for Another Location

Airport or City:

Trip Planner

Search our weather history database for the weather conditions in past years. The results will help you decide how hot, cold, wet, or windy it might be!

Date:

Astronomy

Dec. 06, 2012 Rise Set
Actual Time 6:37 AM PST 4:25 PM PST
Civil Twilight 6:09 AM PST 4:53 PM PST
Nautical Twilight 5:37 AM PST 5:25 PM PST
Astronomical Twilight 5:06 AM PST 5:56 PM PST
Moon No Moon Rise 11:42 AM PST (12/6)
Length of Visible Light 10h 44m
Length of Day
9h 47m
Waning Gibbous, 48% of the Moon is Illuminated
Dec 6
Waning Gibbous
Dec 13
New
Dec 19
First Quarter
Dec 28
Full
Jan 4
Last Quarter

Hourly Weather History & Observations

Time (PST) Temp. Windchill Dew Point Humidity Pressure Visibility Wind Dir Wind Speed Gust Speed Precip Events Conditions
12:58 AM 45.0 °F 43.5 °F 37.9 °F 76% 29.98 in 10.0 mi NE 3.5 mph - N/A   Clear
1:58 AM 44.6 °F 41.4 °F 37.6 °F 76% 29.97 in 10.0 mi NNE 5.8 mph - N/A   Clear
2:58 AM 45.0 °F 42.6 °F 37.2 °F 74% 29.98 in 10.0 mi SW 4.6 mph - N/A   Clear
3:58 AM 41.5 °F 37.8 °F 36.1 °F 81% 29.96 in 10.0 mi ENE 5.8 mph - N/A   Clear
4:58 AM 42.6 °F 39.0 °F 37.6 °F 82% 29.96 in 10.0 mi NE 5.8 mph - N/A   Clear
5:58 AM 43.5 °F 41.9 °F 37.4 °F 79% 29.96 in 10.0 mi NW 3.5 mph - N/A   Clear
6:58 AM 41.5 °F 39.6 °F 36.1 °F 81% 29.98 in - ENE 3.5 mph - N/A   Clear
7:58 AM 45.0 °F - 37.8 °F 76% 29.99 in 10.0 mi NNE 1.2 mph - N/A   Partly Cloudy
8:58 AM 51.3 °F - 39.6 °F 64% 29.99 in 10.0 mi Calm Calm - N/A   Clear
9:58 AM 54.3 °F - 40.5 °F 59% 29.99 in 10.0 mi Calm Calm - N/A   Clear
10:58 AM 60.6 °F - 40.3 °F 47% 29.96 in 10.0 mi Variable 1.2 mph - N/A   Clear
11:58 AM 62.1 °F - 40.8 °F 46% 29.93 in 10.0 mi SE 1.2 mph - N/A   Clear
12:58 PM 65.1 °F - 41.2 °F 42% 29.89 in 10.0 mi Calm Calm - N/A   Clear
1:58 PM 67.5 °F - 40.6 °F 38% 29.86 in 10.0 mi South 3.5 mph - N/A   Clear
2:58 PM 68.5 °F - 40.6 °F 36% 29.85 in 10.0 mi SSW 2.3 mph - N/A   Clear
3:58 PM 67.3 °F - 41.2 °F 39% 29.86 in 10.0 mi SSW 3.5 mph - N/A   Clear
4:58 PM 64.4 °F - 41.0 °F 42% 29.86 in 10.0 mi Calm Calm - N/A   Clear
5:58 PM 57.9 °F - 39.6 °F 50% 29.87 in 10.0 mi Calm Calm - N/A   Clear
6:58 PM 60.3 °F - 40.5 °F 48% 29.88 in 10.0 mi Calm Calm - N/A   Clear
7:58 PM 56.8 °F - 39.4 °F 52% 29.89 in 10.0 mi Calm Calm - N/A   Clear
8:58 PM 51.8 °F - 37.9 °F 59% 29.90 in 10.0 mi Variable 1.2 mph - N/A   Clear
9:58 PM 53.4 °F - 38.7 °F 57% 29.91 in 10.0 mi Calm Calm - N/A   Clear
10:58 PM 50.0 °F - 37.4 °F 62% 29.91 in 10.0 mi East 3.5 mph - N/A   Clear
11:58 PM 47.7 °F - 37.4 °F 68% 29.91 in 10.0 mi ENE 8.1 mph - N/A   Clear